Tracking 22458 objects as of 3-Mar-2021
HD Live streaming from Space Station
objects crossing your sky now

DELTA 2 R/B

Track DELTA 2 R/B now!
10-day predictions


NORAD ID: 33106
Int'l Code: 2008-032B
Perigee: 2,162.2 km
Apogee: 4,373.0 km
Inclination: 65.2 °
Period: 157.0 minutes
Semi major axis: 9638 km
RCS: 10.82 m2 (large)
Launch date: June 20, 2008
Source: United States (US)
Launch site: AIR FORCE WESTERN TEST RANGE (AFWTR)

Note: This is a ROCKET BODY
aabbcc
Your satellite tracking list
Your tracking list is empty




NASA's NSSDC Master Catalog

Two Line Element Set (TLE):
1 33106U 08032B   21061.62000218 -.00000016  00000-0  45060-3 0  9991
2 33106  65.2316 102.0169 1146865 155.0502   8.9345  9.17446267425518
Source of the keplerian elements: AFSPC